Find Starlink 35722

NORAD ID: 66218 Int'l Des: 2025-244 Owner: SPXS Country: US Constellation: starlink operational
LEOCIRCULAR

現在のビュー

3D地球を読み込み中...

About Starlink 35722

Starlink 35722 (NORAD 66218) is a starlink constellation satellite (v2 mini) launched Oct 28, 2025 by SPXS of US. It operates in LEO, CIRCULAR orbit with a mass of 575.00 kg.

次回通過

Passes for default location (London). Set your location on the main map for personalized predictions.

高度履歴

Loading altitude history...

軌道要素

1 66218U 25244N 26237.16781623 .00027221 00000-0 81374-3 0 9994
2 66218 53.1582 164.5575 0001223 91.6555 268.4587 15.34404454 47499
Epoch: Aug 25, 2026 • Age: 24 hours

現在のステータス

高度 462.4 km
遠地点 / 近地点 N/A
速度 7.64 km/s
衛星直下点 17.40°N, 70.51°W
打ち上げ日 Oct 28, 2025
運用期間 0.8 years
タイプ internet

技術仕様

分類 Payload
質量 575.00 kg
乾燥質量 530.00 kg
総質量 575.00 kg
長さ 0.30 m
直径 4.10 m
スパン 29.00 m
形状 Box + pan
製造者 SPXS
バスタイプ Starlink V2MO
フェーズステータス In Orbit
所有者/国 SPXS/US

Most Searched